Regional Weather Roundup
Issued by NWS

Home | Current Version | Previous Version | Graphics & Text | Print | Product List | Glossary On
Versions: 1 2 3 4 5 6 7 8 9 10 11 12 13 14 15 16 17 18 19 20 21 22 23 24 25 26 27 28 29 30 31 32 33 34 35 36 37 38 39 40 41 42 43 44 45 46 47 48 49 50
000
ASUS43 KMKX 272100
RWRWI

WISCONSIN REGIONAL WEATHER ROUNDUP
NATIONAL WEATHER SERVICE MILWAUKEE/SULLIVAN WI
300 PM CST TUE JAN 27 2015

NOTE: "FAIR" INDICATES FEW OR NO CLOUDS BELOW 12,000 FEET WITH NO
SIGNIFICANT WEATHER AND/OR OBSTRUCTIONS TO VISIBILITY.

WIZ001-002-006>008-014>016-023>028-272200-
NORTHWEST WISCONSIN

CITY           SKY/WX    TMP DP  RH WIND       PRES   REMARKS
SUPERIOR ARPT  CLOUDY    31  24  75 SW6       30.17R WCI  25
ASHLAND        CLOUDY    30  21  69 VRB5      30.17S WCI  25
HAYWARD        CLOUDY    27  21  78 S5        30.15F WCI  22
SIREN          CLOUDY    30  24  76 S6        30.15F WCI  24
CUMBERLAND     CLOUDY    28  23  80 S5        30.16R WCI  23
RICE LAKE      CLOUDY    29  22  75 SE3       30.18S
CHETEK         CLOUDY    29  23  78 E8        30.18S WCI  21
LADYSMITH      CLOUDY    28  22  78 SW3       30.18S
EAU CLAIRE     NOT AVBL
MENOMONIE      CLOUDY    31  21  67 SE3       30.19S
NEW RICHMOND   CLOUDY    31  24  74 S5        30.17R WCI  26
OSCEOLA        CLOUDY    32  25  76 SE7       30.19S WCI  25
$$

WIZ003>005-009-010-017-018-272200-
NORTH CENTRAL WISCONSIN

CITY           SKY/WX    TMP DP  RH WIND       PRES   REMARKS
MANITOWISH WTR CLOUDY    23  19  84 W3        30.14S
ARBOR VITAE    CLOUDY    25  19  78 CALM      30.15S
WOODRUFF       CLOUDY    25  19  78 CALM      30.15S
RHINELANDER    CLOUDY    23  17  78 SW6       30.16R WCI  16
EAGLE RIVER    FLURRIES  24  17  75 SW6       30.15R WCI  17
LAND O LAKES   CLOUDY    25  19  79 SW3       30.15S
PHILLIPS       CLOUDY    24  20  82 CALM      30.15R
TOMAHAWK       CLOUDY    24  19  78 CALM      30.17S
MEDFORD        CLOUDY    24  21  86 SE3       30.16F FOG
MERRILL        FLURRIES  25  20  81 CALM      30.18S
$$

WIZ029-030-035-036-043>047-272200-
CENTRAL WISCONSIN

CITY           SKY/WX    TMP DP  RH WIND       PRES   REMARKS
WAUSAU         CLOUDY    24  20  84 SW3       30.18S
MOSINEE        NOT AVBL
MARSHFIELD     CLOUDY    25  21  85 SE9       30.18S FOG     WCI  15
STEVENS POINT  MIX PCPN  23  20  87 CALM      30.22R
WAUPACA        CLOUDY    29  18  63 CALM      30.22R
WAUTOMA        NOT AVBL
WISC RAPIDS    CLOUDY    26  21  81 CALM      30.22R
CAMP DOUGLAS   NOT AVBL
$$

WIZ011>013-019>022-031-037>040-048>050-272200-
NORTHEAST WISCONSIN

CITY           SKY/WX    TMP DP  RH WIND       PRES   REMARKS
ANTIGO         LGT SNOW  23  19  84 SW3       30.17S
SHAWANO        CLOUDY    28  17  63 CALM      30.23R
OCONTO         CLOUDY    27  16  64 SE6       30.22S WCI  20
STURGEON BAY   CLOUDY    25  18  74 N6        30.24S WCI  18
GREEN BAY      CLOUDY    26  16  65 CALM      30.23R
MANITOWOC      NOT AVBL
APPLETON       CLOUDY    27  16  63 N6        30.22R WCI  20
CLINTONVILLE   CLOUDY    28  18  64 CALM      30.22R
OSHKOSH        CLOUDY    28  17  63 NE5       30.22R WCI  23
$$

WIZ032>034-041-042-053>061-272200-
SOUTHWEST WISCONSIN

CITY           SKY/WX    TMP DP  RH WIND       PRES   REMARKS
LA CROSSE      CLOUDY    32  21  64 CALM      30.20F
SPARTA         CLOUDY    28  21  74 CALM      30.22F
VIROQUA        CLOUDY    27  21  79 CALM      30.18S
BOSCOBEL       CLOUDY    30  21  69 CALM      30.22R
PRAIRIE DU CHI CLOUDY    31  21  66 NE5       30.21R WCI  26
PLATTEVILLE    CLOUDY    28  22  79 CALM      30.20R
$$

WIZ056-057-062-063-064-067-068-272200-
SOUTH CENTRAL WISCONSIN

CITY           SKY/WX    TMP DP  RH WIND       PRES   REMARKS
REEDSBURG      CLOUDY    27  24  89 CALM      30.21R FOG
BARABOO/DELLS  CLOUDY    26  24  91 CALM      30.20R FOG
LONE ROCK      NOT AVBL
MINERAL POINT  CLOUDY    30  23  74 CALM      30.18R
MADISON        LGT SNOW  28  23  81 NE6       30.21R WCI  22
MIDDLETON      CLOUDY    29  26  89 CALM      30.20R
WATERTOWN      CLOUDY    29  19  65 NE3       30.19R
MONROE         CLOUDY    28  28 100 CALM      30.17R FOG
JANESVILLE     CLOUDY    30  25  80 E6        30.20R WCI  24
$$

WIZ051-052-058>065-066-070>072-272200-
SOUTHEAST WISCONSIN

CITY           SKY/WX    TMP DP  RH WIND       PRES   REMARKS
MILWAUKEE      PTSUNNY   29  16  58 NE9       30.22R WCI  20
WAUKESHA       PTSUNNY   28  16  59 NE7       30.20R WCI  21
MILWAUKEE/TIMM MOSUNNY   28  16  59 NE7       30.22R WCI  21
RACINE         MOSUNNY   28  17  63 N9        30.23R WCI  19
BURLINGTON     SUNNY     29  16  56 NE6       30.19R WCI  23
KENOSHA        SUNNY     30  16  56 NE9       30.20R WCI  22
FOND DU LAC    CLOUDY    29  18  63 N5        30.21R WCI  24
SHEBOYGAN      CLOUDY    27  18  69 NE5       30.22R WCI  22
WEST BEND      CLOUDY    28  18  64 NE5       30.20R WCI  23
JUNEAU         CLOUDY    28  18  66 CALM      30.22R
$$

LSZ147-162-272200-
LAKE SUPERIOR

STATION/POSITION TIME  TEMP    WIND        PRES    WAVE
                       AIR SEA DIR/SP/G            HT/PER
                 (UTC) (F)     (DEG/KT/KT) (MB)    (FT/S)
DEVILS ISLAND    2000   29     250/  7/  9 1022.5F
PORT WING        2040   30     310/  3/  3 1021.7F
SAXON HARBOR     2000   29        CALM     1021.7
$$

LMZ867-665-643>646-272200-
LAKE MICHIGAN

STATION/POSITION TIME  TEMP    WIND        PRES    WAVE
                       AIR SEA DIR/SP/G            HT/PER
                 (UTC) (F)     (DEG/KT/KT) (MB)    (FT/S)
NORTHPORT PIER   2000   25      80/  3/  6 1023.4S
SISTER BAY       2013   28      10/  6/  7   N/A
KEWAUNEE LAKESHO 2000   26      30/  2/  4 1022.3R
SHEBOYGAN LAKESH 2000   26      50/  8/  9 1024.2R
PORT WASHINGTON  2040   28      50/  6/  9 1024.0R
MILWAUKEE LAKESH 2000   27      40/ 10/ 12   N/A
KENOSHA   LAKESH 1900   27      40/  7/ 11 1022.4S
$$

TC  - TEMPERATURE IN CELSIUS
VSB - VISIBILITY IN STATUTE MILES
WCI - WIND CHILL INDEX
HX  - HEAT INDEX




USA.gov is the U.S. government's official web portal to all federal, state and local government web resources and services.